Wind_Gust
22 21 21 20 19 18 16 15 13 13 12 11 10 9 9 11 11 13 12 12 15 16 17 19 20 20 18 17 17 15 16 15 14 12 13 13 14 15 16 19 16 16 17 17 16 16 17 16 16 15 15 17 16 17 17 19 18 17 20 19 21 21 21 21 18 19 19 19 17 18 16 14 13 17 17 17 17 17 16 18 17 18 17 18 18
22 20 19 18 19 17 16 15 14 14 13 12 11 10 9 8 10 11 11 11 13 15 15 16 17 19 20 20 19 18 17 16 15 15 15 16 16 16 14 15 16 16 17 16 16 17 17 18 17 17 16 16 16 17 17 19 19 18 20 22 20 23 23 21 21 22 24 25 22 19 17 15 15 17 21 21 18 18 17 17 17 17 17 17 18
22 21 20 20 19 19 18 15 15 14 14 12 11 10 10 10 9 9 10 12 12 14 15 16 15 15 18 21 19 18 14 14 14 14 13 13 13 15 16 15 17 17 16 16 16 15 16 17 18 19 17 17 17 19 18 19 19 20 20 20 18 19 22 21 21 24 24 21 17 19 19 22 18 16 14 18 21 18 18 17 18 18 18 16 17
23 22 22 21 21 20 18 17 15 14 14 14 12 11 9 8 8 8 9 10 11 13 14 14 14 14 15 18 17 15 16 14 16 14 15 16 16 16 17 15 16 18 18 18 17 16 15 16 18 18 19 18 18 17 16 18 17 18 20 20 20 22 23 20 22 24 25 23 23 23 19 21 19 23 21 19 20 21 19 20 18 19 19 18 17
23 22 22 21 22 21 20 17 16 15 14 14 14 13 10 9 9 8 8 9 10 11 13 14 15 14 16 17 16 15 13 15 16 16 16 16 18 16 18 18 19 18 18 18 18 17 16 16 17 19 19 19 19 19 18 18 19 21 23 21 21 21 21 22 23 23 25 21 20 18 19 20 21 17 22 18 22 22 22 20 19 20 19 20 19
22 23 22 22 21 20 19 18 16 16 15 13 13 13 10 10 9 8 8 8 10 11 12 14 16 17 19 22 20 18 17 16 17 17 18 17 16 16 17 18 20 18 16 17 18 16 16 16 17 20 19 21 20 20 20 18 19 18 19 20 22 21 21 19 22 22 25 26 23 23 18 20 19 19 25 24 20 19 20 21 21 20 19 19 19
20 20 20 21 21 20 20 19 19 17 15 14 13 13 12 9 10 8 8 8 8 10 11 12 14 16 17 20 19 18 17 16 15 15 15 16 17 16 17 17 17 18 17 17 17 16 15 16 17 19 20 22 21 20 20 19 19 19 19 19 20 20 22 24 21 20 22 23 24 25 22 19 18 19 21 15 21 17 19 21 21 21 21 20 20
23 21 22 22 21 22 21 19 18 17 15 15 14 13 12 11 10 9 8 8 9 10 11 11 14 15 16 18 20 17 16 17 16 16 15 16 16 17 16 16 16 16 16 16 18 17 15 17 18 19 20 21 22 21 20 20 19 18 18 19 20 21 22 23 23 22 23 26 25 27 26 24 21 20 21 19 19 21 22 20 18 21 22 22 22
21 23 21 22 24 23 20 19 17 16 15 15 16 14 13 12 11 10 9 8 8 9 10 12 13 14 15 20 20 18 17 17 17 16 16 16 16 16 15 16 17 14 15 15 16 16 14 15 16 17 20 20 21 20 19 19 19 19 18 18 20 21 21 20 22 23 21 24 25 27 28 27 23 22 22 16 18 19 20 23 22 21 21 22 23
22 22 23 21 20 21 19 17 17 16 15 14 14 14 14 13 12 11 9 8 9 8 9 10 11 13 14 17 21 19 17 17 16 17 15 15 15 15 15 16 16 16 14 14 16 15 13 14 16 17 18 19 20 20 19 19 18 18 19 18 20 20 19 21 24 23 22 21 23 20 24 24 23 23 21 18 19 17 16 20 22 22 24 25 23
18 17 19 18 17 18 18 19 16 16 15 15 15 16 14 13 12 12 10 8 9 8 9 10 11 12 14 15 20 19 18 17 17 17 17 15 16 15 16 16 15 17 15 14 15 14 13 14 14 15 15 18 19 19 18 19 20 18 19 18 20 21 22 21 22 23 22 21 20 19 20 23 23 25 21 20 20 21 19 17 19 22 26 22 24
21 19 20 18 17 18 18 18 18 18 16 17 17 16 15 14 13 12 11 9 8 8 9 10 11 12 12 14 19 19 18 19 18 17 17 16 16 18 16 16 15 15 13 14 14 13 13 13 15 15 16 16 18 19 19 18 18 18 18 19 18 20 23 26 23 23 24 25 23 21 21 21 22 22 20 17 19 19 20 18 20 25 21 23 22
27 21 15 21 19 19 20 19 19 19 19 18 18 16 15 14 14 12 11 10 9 8 9 10 10 12 12 14 18 20 18 18 18 17 15 16 17 18 18 16 16 15 14 15 14 14 15 13 14 16 16 14 16 18 18 18 18 18 18 19 19 20 22 23 25 23 24 26 25 23 22 22 22 23 20 18 17 19 20 23 22 20 23 21 20
23 18 16 18 20 18 19 19 20 19 19 19 18 17 16 14 13 13 11 10 10 9 9 10 10 11 11 12 17 20 18 17 17 18 16 15 17 17 17 16 17 16 16 16 16 16 16 16 15 16 16 17 18 19 18 18 18 19 19 20 20 22 22 23 26 23 23 24 25 28 24 24 23 26 21 17 18 17 18 22 20 18 16 15 18
28 24 19 19 21 19 16 17 18 19 18 19 18 18 16 15 15 13 12 11 10 10 9 9 10 10 11 12 17 18 18 18 17 16 16 15 16 17 17 17 17 17 16 16 17 16 16 16 16 17 16 16 17 19 21 20 18 18 18 20 21 21 23 24 22 22 25 23 25 28 25 23 23 22 21 19 18 22 21 18 16 18 18 16 15
13 18 13 12 13 14 17 16 16 16 17 17 17 17 16 16 14 13 12 10 11 11 10 9 9 10 10 12 15 18 17 17 17 16 15 15 16 18 18 16 16 16 15 16 16 18 16 16 17 17 17 17 16 17 19 20 20 19 19 20 20 20 22 22 22 21 22 23 25 25 25 24 22 19 19 18 17 14 15 15 15 14 16 19 18
16 15 15 12 12 13 14 14 15 15 15 16 17 17 16 15 14 13 12 12 11 10 10 9 9 10 10 12 14 17 17 16 17 15 14 15 16 17 17 17 16 14 15 13 15 15 15 16 17 16 16 16 16 17 18 18 20 19 19 19 21 20 21 22 21 21 22 23 24 25 25 23 22 21 18 16 17 15 13 15 14 16 15 18 20
17 21 16 11 12 15 13 14 14 14 14 14 16 15 15 15 14 14 13 13 12 11 11 10 10 10 10 11 13 16 18 18 17 14 14 16 17 17 17 17 16 15 13 13 13 14 14 15 16 17 17 16 16 18 17 19 19 19 19 21 21 19 20 19 19 20 20 20 22 24 26 24 22 22 21 19 18 17 16 18 17 16 16 18 19
19 20 20 20 18 15 13 13 13 13 14 13 15 15 14 14 14 13 13 13 12 12 10 10 10 10 10 11 12 16 18 18 16 15 16 18 19 18 16 15 14 14 14 14 13 15 15 15 16 17 18 18 17 17 16 18 17 18 18 19 18 17 19 19 18 19 19 20 22 24 21 21 23 21 21 20 20 20 18 19 17 17 18 19 19
20 24 21 19 21 21 13 13 14 14 14 14 13 14 15 15 14 14 13 13 13 12 12 11 10 10 10 11 13 17 18 18 15 14 16 19 16 16 14 13 13 14 13 14 15 16 18 17 18 19 20 19 19 16 16 16 18 17 19 19 20 19 19 19 17 17 17 18 19 21 20 20 19 20 23 20 20 20 18 19 17 16 16 18 20
15 15 20 20 18 15 12 13 13 13 13 13 13 15 15 15 15 15 15 15 14 13 13 12 10 10 10 10 13 15 16 17 16 15 14 14 15 15 14 13 13 13 14 16 17 17 18 18 20 20 19 19 19 17 16 16 16 16 18 18 19 18 18 16 18 18 16 16 18 21 21 21 21 22 21 21 21 19 18 20 17 15 16 17 19
13 14 14 15 16 13 14 18 14 14 14 14 15 15 15 16 17 16 16 16 15 15 15 13 11 10 10 10 12 15 16 17 15 16 16 15 14 15 13 13 12 13 14 17 18 18 18 19 19 19 19 19 19 18 16 16 17 18 18 16 17 18 18 18 16 16 16 15 15 20 22 23 21 23 22 23 21 23 17 17 18 22 21 19 19
15 15 16 13 13 16 16 16 17 15 15 15 17 16 16 16 17 16 17 15 14 14 14 13 11 10 10 10 13 15 16 16 16 15 16 15 14 12 13 13 14 15 16 17 17 18 18 18 18 18 18 18 18 17 15 15 16 17 18 18 17 18 18 18 17 17 17 16 17 17 18 20 21 20 21 23 21 22 19 21 21 19 19 19 19
11 13 10 13 14 15 14 14 16 16 15 15 17 16 16 16 17 16 16 15 15 14 13 12 11 10 10 11 14 15 15 16 16 15 16 14 14 13 13 13 14 16 17 17 17 17 17 17 17 17 17 18 19 17 17 15 16 16 18 19 19 18 18 17 16 17 16 16 17 17 17 18 17 18 18 17 15 16 20 21 19 19 22 20 20
9 10 11 10 11 12 15 16 16 19 18 19 16 16 16 16 16 17 16 16 16 15 14 13 11 11 10 13 14 15 16 16 16 16 15 14 12 13 12 14 13 16 17 16 16 15 15 15 16 16 17 17 17 18 17 16 16 16 18 19 19 18 18 17 16 15 14 15 14 15 15 15 16 16 16 15 15 16 17 17 19 19 22 22 22
11 14 12 11 11 15 17 11 14 14 16 17 18 17 16 16 17 15 16 16 16 14 14 12 11 11 14 13 13 14 16 16 16 14 14 13 13 11 12 12 13 15 15 15 15 14 14 14 15 16 16 16 17 17 17 16 18 19 20 19 20 19 18 17 17 16 15 14 13 14 13 14 13 14 13 13 15 17 16 15 16 16 21 18 20
17 12 20 21 18 19 15 15 13 13 13 14 15 16 16 16 16 17 17 16 15 14 14 13 11 11 13 14 14 14 15 16 14 14 13 13 12 10 12 13 13 13 14 15 14 13 12 13 14 15 15 16 16 16 15 16 19 20 20 20 20 20 19 19 16 17 14 12 15 14 13 12 14 12 12 11 11 11 13 12 15 13 15 15 16
20 23 22 15 12 13 12 11 12 14 16 16 15 16 16 16 17 18 17 15 14 14 14 14 12 12 12 15 14 14 14 15 14 13 13 11 12 12 12 12 13 13 12 13 13 13 13 13 13 14 14 14 16 15 16 18 19 19 19 19 19 19 19 19 16 17 15 14 15 16 13 14 14 12 13 13 11 10 10 11 11 11 12 11 13
23 23 19 14 12 12 12 11 12 12 15 16 15 16 14 14 16 17 17 17 16 14 14 13 13 13 14 14 14 13 14 14 14 13 13 12 11 11 11 12 12 12 12 13 13 14 15 14 13 13 14 14 14 14 15 17 19 20 19 19 19 19 20 20 18 17 16 14 12 15 14 10 14 11 12 11 9 10 8 8 10 10 11 10 9
23 20 17 12 12 11 11 13 14 16 17 17 15 14 15 15 15 16 16 16 15 14 14 13 14 14 16 17 17 14 14 14 13 12 12 12 11 11 11 11 12 13 13 13 13 13 14 13 13 13 13 12 13 10 12 13 11 16 18 18 19 19 19 19 19 18 16 15 13 11 13 11 10 8 10 8 9 11 12 11 10 9 8 10 9
15 12 17 13 14 15 13 16 16 14 11 13 12 12 11 13 14 15 15 15 16 15 14 13 16 16 16 14 14 13 14 14 13 12 11 11 12 11 12 13 13 13 13 14 13 14 13 13 14 14 14 15 10 12 10 9 11 10 15 18 18 19 19 20 19 18 15 14 12 10 11 10 8 8 11 8 8 9 9 11 12 13 11 11 10
14 14 14 14 14 15 13 13 13 12 11 11 10 11 12 13 14 15 15 14 12 12 13 14 15 15 14 14 13 14 14 14 13 13 12 13 13 12 13 13 13 13 14 13 13 13 14 13 13 14 14 16 12 10 10 10 12 12 11 17 18 19 19 19 20 18 15 13 13 12 10 9 8 12 15 14 11 9 9 11 12 12 13 14 10
13 12 12 14 14 13 13 12 12 12 12 11 10 10 11 11 12 12 11 11 12 12 13 14 13 14 14 13 14 15 15 14 14 13 12 12 13 14 13 13 13 13 14 14 14 14 15 13 14 14 15 16 13 11 10 9 11 13 13 14 18 19 19 18 19 17 14 13 11 12 11 10 9 9 12 12 12 12 10 11 14 14 14 14 12
11 11 12 13 13 14 13 12 11 10 10 10 10 9 8 8 11 12 12 13 13 13 13 14 14 14 13 13 14 14 15 14 14 13 12 12 12 12 11 12 13 14 14 14 13 14 15 14 14 14 15 16 12 11 10 10 10 12 12 12 18 19 19 18 18 15 12 13 13 12 12 11 9 12 15 15 12 11 12 12 12 11 15 15 11
11 11 12 12 12 11 11 10 11 10 9 8 9 10 9 9 10 11 11 12 12 14 13 12 14 14 13 12 14 14 15 14 13 13 12 12 12 12 14 14 14 15 15 15 14 14 14 13 13 14 14 16 15 9 9 11 10 14 15 12 17 17 17 16 15 12 10 14 12 14 13 12 11 13 15 16 16 14 13 13 16 16 17 17 17
11 11 11 11 11 11 10 9 8 8 9 9 10 9 8 9 9 10 10 12 13 14 14 12 13 13 14 12 13 13 13 12 11 11 12 12 11 12 14 15 15 15 14 13 13 14 14 13 12 14 14 18 15 11 11 12 13 14 16 17 17 16 14 14 12 9 9 12 14 15 15 14 10 12 13 14 12 16 14 12 16 16 16 18 20
10 10 10 9 9 9 9 7 7 7 8 9 9 10 9 9 10 9 12 13 12 13 14 12 12 13 13 12 12 13 12 12 11 11 12 11 12 12 11 11 13 12 12 12 13 14 13 12 13 13 15 17 12 12 11 11 12 15 13 19 18 16 13 9 10 8 8 12 14 16 17 16 13 14 14 14 12 12 11 15 15 16 16 17 19
11 10 10 10 10 10 9 9 8 8 8 9 10 10 10 10 10 10 11 12 13 14 13 13 13 11 12 12 11 12 12 11 11 12 12 11 11 12 13 12 13 12 13 12 12 14 12 11 11 13 15 15 14 14 11 10 11 14 14 19 19 17 13 9 8 8 9 12 16 20 18 16 16 14 14 13 13 13 13 15 15 16 17 17 16
11 12 12 11 12 11 11 11 11 11 11 10 10 10 11 11 10 10 11 12 12 12 12 12 12 12 12 11 10 12 12 12 13 12 12 13 14 13 14 13 12 12 13 13 13 14 12 12 10 12 8 13 14 12 12 11 12 13 15 16 18 16 13 9 10 10 8 9 14 15 18 17 14 14 12 11 11 13 13 13 15 15 16 15 14
12 11 12 12 12 13 13 13 12 13 12 12 12 14 12 13 11 9 11 12 11 12 12 11 12 12 11 12 10 11 11 12 13 12 12 13 14 15 14 13 11 13 14 13 13 11 11 11 10 14 12 14 14 13 16 12 12 15 15 18 16 13 14 11 11 10 8 10 9 11 15 15 15 14 11 11 10 12 12 16 13 13 15 16 14
13 13 7 14 14 15 16 14 15 14 14 14 15 14 15 14 13 12 12 11 11 12 13 12 11 12 13 13 12 11 10 12 14 14 13 13 13 14 13 13 14 14 13 13 13 12 11 11 11 12 13 12 14 15 13 11 11 13 15 13 16 11 13 14 12 8 10 10 11 15 15 13 14 12 11 10 10 13 10 14 13 14 14 17 14
14 14 13 14 15 15 16 16 15 16 14 15 16 17 17 16 15 15 12 10 12 12 12 12 13 14 13 13 12 11 10 11 13 13 13 14 13 13 14 15 17 16 16 14 12 12 12 12 11 10 11 11 13 12 13 10 11 11 12 13 15 13 16 14 15 10 12 14 15 16 16 12 11 12 11 11 13 13 13 17 20 16 16 13 18
16 16 17 19 18 17 17 17 16 16 17 17 16 17 17 16 17 14 13 13 12 12 13 14 13 14 12 12 11 10 11 12 12 12 12 13 14 14 14 15 16 16 16 16 15 14 12 12 11 12 9 12 11 13 10 10 9 10 10 10 12 13 15 16 12 12 13 15 15 15 15 11 11 12 13 13 12 14 14 17 16 15 13 14 12
16 16 16 15 18 18 18 16 17 17 18 18 18 19 19 18 18 15 14 13 13 13 13 13 12 13 13 12 12 12 12 12 13 14 13 13 14 14 15 16 15 16 16 15 13 11 11 12 13 12 10 13 10 11 8 8 9 9 9 10 11 12 14 16 15 15 15 16 16 16 13 7 11 13 16 17 18 15 18 11 9 7 6 8 14
18 18 17 17 18 18 19 17 17 17 18 19 19 20 19 20 18 15 17 17 15 15 13 13 13 13 13 13 13 13 13 13 13 12 13 14 13 13 14 13 12 14 14 14 11 11 13 15 14 10 12 8 9 9 11 9 7 8 9 9 11 13 14 12 15 18 16 18 10 6 5 7 7 9 11 13 12 13 13 12 10 7 12 14 14
16 16 16 17 18 18 18 19 18 17 19 19 21 21 22 21 18 18 18 18 17 16 15 14 13 12 13 13 13 13 13 12 11 13 13 14 13 13 13 15 15 12 11 11 12 15 18 17 16 11 9 9 8 10 13 13 9 8 7 10 12 13 15 16 16 18 11 8 6 5 5 8 8 9 13 15 16 16 12 11 10 10 16 16 16
18 16 15 17 16 18 18 18 18 16 19 20 20 22 23 21 20 20 19 18 18 17 15 15 14 14 13 13 12 15 14 14 14 13 14 14 13 12 12 14 12 9 9 12 16 19 17 17 11 12 10 10 10 11 12 13 15 15 16 15 16 16 13 13 16 16 11 14 14 12 15 11 12 12 9 8 10 10 13 14 15 16 16 17 16
16 16 16 17 17 18 18 18 19 18 18 19 20 23 23 22 21 20 20 19 18 18 17 17 16 15 15 15 15 6 10 15 13 14 14 14 13 11 12 13 13 14 12 15 19 19 18 19 13 10 11 13 15 13 14 15 14 14 15 14 13 14 16 13 15 15 16 17 17 9 12 16 15 14 14 15 17 17 17 17 18 18 19 19 16
17 16 16 19 18 19 19 19 20 19 18 18 19 20 21 23 23 21 20 20 20 18 19 17 17 18 17 15 15 15 16 15 15 15 14 13 11 12 14 14 18 16 17 18 18 19 22 21 20 19 16 14 15 14 12 7 13 9 14 16 17 14 13 12 10 7 14 15 15 16 14 15 16 17 17 16 18 19 18 18 17 17 17 17 16
17 18 18 18 17 19 19 19 20 19 18 18 18 19 20 22 24 24 23 22 21 21 20 20 20 18 18 17 16 16 15 15 15 14 15 13 9 8 9 15 11 11 13 10 5 14 16 20 21 19 17 13 11 15 9 11 10 9 9 9 14 15 14 14 10 11 12 15 14 14 14 15 15 16 17 18 18 18 18 19 19 12 18 19 18
17 18 19 18 18 18 18 18 20 18 19 19 18 18 18 20 23 24 25 24 23 22 22 22 21 20 18 18 17 16 16 16 16 15 15 14 16 14 9 12 8 10 9 9 11 11 10 11 16 13 15 12 11 10 11 11 11 9 8 9 10 10 11 13 12 14 18 16 14 15 15 15 16 17 17 18 18 18 18 19 19 19 19 19 17
Wind_Speed
10 10 9 8 8 6 6 5 5 5 5 4 4 3 3 4 3 3 3 3 3 3 3 4 4 4 3 5 5 2 3 3 5 4 5 5 6 6 6 5 5 6 6 5 5 5 5 5 5 4 4 3 4 5 5 3 3 5 4 2 2 3 1 5 3 3 5 5 5 4 3 2 4 5 6 5 3 2 4 5 1 6 4 4 4
11 6 7 7 6 6 4 4 5 6 5 4 4 4 4 2 4 3 2 4 2 3 3 3 3 4 4 4 4 4 4 3 3 3 3 4 3 4 4 4 6 7 7 7 5 5 4 4 4 5 5 4 3 4 3 4 4 0 5 5 2 3 3 4 5 4 2 4 4 1 4 3 3 5 5 6 3 2 3 5 6 2 5 4 5
5 7 5 6 6 6 4 2 3 4 5 4 3 4 4 4 2 3 2 3 3 2 3 2 2 3 3 4 3 2 2 4 6 6 5 5 4 5 7 7 6 5 7 8 7 5 6 6 4 4 5 5 5 5 4 3 4 4 5 5 3 3 2 1 4 1 2 3 4 3 1 1 3 3 3 6 5 2 1 3 4 6 3 4 5
8 8 4 5 5 4 3 3 3 3 5 4 4 4 2 3 2 3 2 2 3 2 2 2 3 3 2 4 4 3 3 4 4 4 5 7 7 6 5 6 7 7 7 7 7 6 5 5 5 5 6 6 6 6 6 6 3 2 3 5 5 4 4 3 3 6 4 7 4 2 3 2 1 3 3 3 4 3 1 1 2 4 6 5 3
5 11 5 2 4 3 3 4 3 4 4 5 4 4 3 3 3 2 3 2 2 2 2 2 3 3 3 3 3 2 3 3 3 4 4 4 4 5 5 7 7 7 7 7 7 7 5 4 4 5 6 6 6 6 5 6 7 4 4 6 5 5 5 2 2 3 6 3 2 4 3 2 2 2 1 3 3 3 4 3 2 2 3 5 5
7 3 5 7 1 2 4 4 5 5 4 4 5 4 3 3 4 3 3 2 2 2 2 2 2 3 3 5 5 4 4 5 5 5 5 4 3 3 4 4 6 7 7 6 6 6 6 4 3 4 5 5 5 6 6 6 7 7 3 2 4 5 6 2 2 3 3 2 0 2 2 1 4 3 2 3 2 5 2 3 4 2 1 2 5
5 8 8 3 3 2 8 7 6 7 5 4 4 4 4 4 4 3 2 4 3 2 2 2 2 2 3 4 5 4 4 4 4 4 4 5 3 3 3 4 5 5 5 6 6 7 6 2 4 4 5 6 5 5 5 6 7 7 5 2 4 1 2 5 4 3 2 3 4 4 1 1 1 3 3 1 1 2 3 3 2 3 2 2 4
6 6 7 6 7 9 10 9 7 6 6 5 4 4 5 2 5 3 2 2 3 1 2 2 2 2 3 3 4 3 4 4 3 3 3 4 5 4 3 4 4 4 4 5 6 6 6 2 3 4 4 5 6 5 6 6 6 7 6 3 3 3 2 5 6 3 4 2 2 4 4 5 4 3 1 2 1 1 2 3 3 3 3 4 4
8 8 9 8 7 8 11 8 6 6 7 5 6 4 4 4 3 2 2 3 4 2 1 2 2 2 2 3 5 3 4 3 3 3 4 4 5 4 5 5 4 2 3 4 5 6 5 2 3 4 5 5 6 6 5 6 6 6 5 4 3 3 1 2 3 3 3 4 3 3 5 6 5 5 5 4 4 3 3 3 3 2 3 4 5
10 9 8 9 10 12 10 7 5 7 6 5 7 6 5 4 4 4 3 3 4 3 2 2 2 1 2 3 4 5 4 3 3 4 3 4 5 6 4 5 5 5 4 3 4 6 3 2 2 4 4 5 5 5 6 6 5 4 5 3 3 4 2 3 4 4 3 2 4 4 4 4 4 4 5 6 5 3 3 2 4 5 5 4 5
7 9 9 9 8 9 8 8 9 8 5 5 5 7 6 4 4 4 4 2 4 3 2 2 2 1 2 3 5 6 5 4 4 4 5 4 5 5 5 4 4 5 4 4 4 5 3 2 2 3 5 5 5 5 5 5 4 5 5 4 3 3 4 3 4 4 3 3 5 3 6 6 5 4 4 6 5 2 3 4 3 5 7 7 5
8 8 7 6 6 5 8 9 7 6 5 6 5 5 6 6 5 5 5 3 3 3 2 2 1 1 3 2 3 5 4 4 3 3 4 5 5 5 4 4 4 5 4 5 5 6 4 2 1 2 4 5 5 5 6 6 5 5 4 5 5 4 3 3 4 5 3 3 4 5 4 2 5 3 1 1 5 5 4 3 4 2 4 6 3
8 4 3 6 4 4 5 5 4 6 6 6 5 5 5 7 7 6 5 4 3 3 3 2 1 2 2 2 3 4 5 6 5 5 5 5 5 6 6 5 5 6 5 6 6 7 6 4 2 2 3 3 4 5 6 7 6 4 5 5 5 5 4 3 4 6 5 5 4 4 6 6 5 1 3 5 5 3 3 4 5 3 5 4 4
9 4 2 1 2 3 4 3 5 5 6 6 6 5 4 5 6 6 5 5 4 3 2 2 1 1 2 2 2 3 3 2 2 1 3 3 5 5 5 5 5 5 6 5 5 6 5 5 6 4 4 4 4 6 6 7 8 6 6 6 7 6 4 5 5 6 5 6 4 4 5 5 5 6 4 5 6 5 5 6 5 3 4 5 2
13 11 11 12 11 10 8 2 3 2 4 6 7 6 6 6 6 6 5 4 5 4 3 2 2 2 2 1 1 4 2 2 1 0 1 2 4 5 5 5 5 5 5 5 6 6 6 5 6 5 4 3 3 3 4 5 5 6 5 6 6 5 5 5 4 5 6 6 5 5 5 5 6 5 6 6 7 7 7 7 6 3 2 5 4
5 10 3 4 10 9 10 8 7 6 11 9 9 7 6 6 5 6 6 5 5 4 3 3 2 2 2 1 1 3 2 3 1 1 1 1 3 4 5 5 5 5 5 4 5 5 5 5 5 5 5 4 3 3 4 4 4 5 5 6 7 6 7 7 7 5 5 4 3 2 5 6 5 6 7 6 6 6 6 6 6 6 6 5 4
4 2 4 8 7 5 7 6 5 10 9 7 6 8 8 6 5 6 5 5 5 6 5 3 2 2 2 1 1 3 3 5 2 3 3 2 3 3 4 4 5 5 6 5 5 5 5 5 4 5 5 5 5 4 3 3 4 4 5 6 7 6 6 7 7 7 6 3 2 5 6 6 5 6 6 6 7 7 6 6 7 8 6 5 4
3 4 6 6 6 8 5 7 7 4 4 6 6 5 5 5 6 6 5 5 5 5 4 4 3 3 2 2 1 4 3 6 5 4 3 3 3 3 3 4 6 6 5 5 5 6 5 5 3 4 5 6 6 5 3 3 4 4 5 5 5 6 6 5 5 6 5 4 5 3 4 5 4 5 7 7 8 7 6 6 6 6 5 6 5
3 3 2 2 4 4 3 6 6 6 6 5 7 5 4 4 5 5 5 5 4 4 3 3 3 2 2 1 1 3 3 3 2 2 3 3 4 4 4 4 5 6 5 5 4 5 5 5 4 5 5 6 6 6 4 3 3 4 4 5 6 6 6 6 5 5 4 3 5 6 3 3 5 6 5 6 6 6 7 7 6 5 6 6 5
3 3 3 1 2 4 7 4 3 4 4 5 5 6 6 5 4 4 4 4 5 4 4 4 4 3 2 1 1 4 4 4 2 1 3 4 4 4 3 4 5 6 5 5 5 5 6 6 6 6 7 6 7 7 6 4 4 4 4 4 5 7 7 6 6 4 5 4 5 5 4 3 2 3 5 6 5 6 5 5 5 5 5 6 5
4 2 1 2 3 3 5 3 3 3 3 4 3 1 3 3 4 4 4 4 4 4 4 3 2 2 2 2 1 3 2 2 4 3 3 5 4 2 2 3 5 5 5 5 6 6 7 6 8 7 7 7 8 8 5 5 5 6 7 5 5 6 7 6 5 6 4 5 6 6 4 2 2 2 3 4 5 3 2 6 7 6 6 6 6
8 4 6 7 7 4 8 10 7 5 1 6 4 3 4 2 4 4 4 4 4 5 4 4 3 2 2 1 1 4 2 2 3 2 3 5 5 2 2 4 5 5 4 5 7 6 5 7 7 7 7 7 8 8 7 5 6 7 7 6 6 7 7 7 6 6 6 3 3 5 9 3 1 3 5 4 5 4 8 9 8 7 7 6 5
2 2 3 3 5 7 9 8 10 2 4 7 6 8 3 4 6 4 6 4 4 5 6 5 4 5 3 1 3 1 2 3 3 3 2 4 5 2 2 4 5 4 4 4 5 6 7 7 7 7 7 7 8 8 7 6 6 8 8 8 8 8 8 8 8 6 5 4 3 2 5 3 2 3 4 5 1 4 4 7 6 6 6 6 6
3 3 3 4 4 5 6 6 2 5 4 6 6 8 5 4 3 2 4 6 5 4 3 4 4 3 3 4 4 1 1 1 2 2 3 4 5 3 2 4 5 4 5 4 5 6 6 6 6 7 8 8 8 8 8 7 8 7 9 10 10 9 9 9 9 7 7 5 7 5 3 4 3 4 4 3 5 5 5 4 6 5 4 5 4
3 2 5 5 3 4 4 4 4 6 5 5 7 7 5 5 4 3 3 3 4 5 4 4 4 4 4 3 3 1 0 1 1 2 3 5 5 2 2 5 4 5 4 2 3 5 4 5 5 6 7 7 7 8 8 8 8 9 10 11 11 11 9 9 8 8 5 1 4 4 4 3 3 5 6 4 2 3 3 2 4 3 6 4 1
7 7 7 7 6 8 10 2 3 0 8 8 7 6 7 6 2 3 2 2 3 3 4 4 4 4 2 4 1 1 1 1 2 2 3 4 5 3 3 3 4 5 5 2 2 2 4 5 5 6 6 7 6 6 7 7 7 8 8 9 11 11 11 10 9 7 8 0 4 5 6 4 3 1 3 4 3 2 0 5 5 2 2 2 3
4 6 10 13 8 3 3 9 8 3 6 3 2 4 5 3 3 3 3 1 3 4 3 3 3 2 3 1 1 1 0 1 2 1 1 3 3 4 5 4 5 5 4 3 2 3 3 4 5 5 5 6 6 5 4 4 6 7 7 7 9 10 11 10 9 9 7 4 2 5 2 3 2 3 2 2 2 2 3 3 4 4 3 3 5
5 6 3 5 7 5 1 4 3 6 8 9 8 6 5 2 2 2 3 3 2 4 4 4 4 5 6 3 1 3 3 2 2 1 2 1 1 2 4 3 4 4 3 4 3 3 3 5 5 3 4 3 5 6 4 4 5 5 5 6 7 8 9 10 10 10 7 6 3 3 3 2 2 1 1 1 0 2 2 3 2 1 2 2 2
6 5 4 5 5 2 4 6 6 6 6 7 7 5 6 5 2 1 3 4 4 3 4 4 5 6 2 2 3 4 3 3 1 1 2 1 1 2 3 4 5 4 3 4 4 4 5 6 6 5 4 3 3 2 3 3 3 5 5 6 7 8 9 10 10 10 7 4 5 2 2 5 4 2 4 5 5 4 1 1 1 1 2 2 2
7 5 8 4 7 4 4 4 3 2 3 5 6 6 3 7 5 2 2 3 4 3 3 4 5 4 3 5 5 2 2 2 1 2 2 1 2 2 1 3 5 5 5 4 4 3 4 5 6 6 4 3 1 3 2 1 2 3 5 4 6 7 9 9 10 10 7 4 3 1 3 4 3 1 4 5 6 8 8 5 2 4 2 1 0
5 5 3 4 8 8 4 4 3 4 3 3 2 3 4 4 5 3 2 3 6 5 5 5 5 3 3 4 4 1 1 2 4 3 2 2 1 1 1 3 4 4 5 3 4 5 4 4 5 6 6 5 1 2 1 2 3 7 5 4 5 7 8 9 9 10 7 5 2 3 1 3 2 1 1 5 5 7 8 8 10 10 8 5 2
6 7 5 5 5 2 5 4 4 4 4 4 2 3 2 2 4 4 3 3 3 3 3 2 3 2 2 3 3 3 2 2 2 2 2 1 2 1 3 4 3 4 4 4 4 5 5 4 3 4 5 5 2 2 1 4 5 6 3 2 4 6 7 8 8 10 6 4 5 2 1 1 0 3 5 4 4 5 7 9 11 10 11 12 8
4 3 4 4 5 5 4 5 3 4 5 6 5 4 4 4 4 1 4 2 1 1 2 3 3 4 4 2 2 2 4 4 2 1 1 1 0 1 2 3 4 4 4 5 5 4 5 5 3 4 5 4 2 2 2 5 6 5 2 3 4 5 7 7 8 10 6 5 5 4 2 4 1 5 4 3 6 4 5 9 12 12 12 12 11
3 2 3 4 3 3 3 3 3 3 4 2 2 3 3 2 4 2 1 1 2 3 3 5 5 5 3 2 3 2 3 2 2 2 1 2 3 3 2 2 3 4 4 5 5 6 5 5 4 4 5 4 4 1 2 5 6 7 5 4 5 6 6 8 9 8 5 5 5 5 5 3 3 7 6 7 2 5 5 5 5 6 7 9 10
3 3 4 3 2 2 2 2 3 3 1 1 1 0 2 1 0 2 1 2 3 4 3 3 3 2 1 3 5 3 2 2 2 2 2 2 2 2 3 2 2 3 4 4 4 4 4 4 5 5 4 4 3 2 3 6 7 8 11 7 5 5 5 6 7 5 2 2 5 6 5 6 5 7 6 6 6 4 3 3 7 7 8 7 7
2 3 3 3 3 3 2 2 1 2 2 3 2 0 2 1 1 2 2 2 4 4 5 3 3 3 3 3 5 3 2 2 3 2 1 1 2 3 3 2 2 3 3 3 4 4 5 5 4 5 4 2 3 2 4 5 7 10 12 6 6 7 7 5 5 2 1 4 5 5 4 5 4 6 7 8 5 4 1 7 8 8 8 7 7
2 1 2 2 3 2 2 1 2 2 2 2 0 2 2 2 2 2 2 3 3 4 5 2 3 4 3 3 4 2 1 2 2 2 3 3 3 2 3 3 4 4 3 3 3 4 5 5 5 4 2 2 3 1 1 4 7 10 8 5 6 7 6 4 3 3 2 6 5 4 4 4 4 5 8 9 9 7 6 7 8 8 7 7 6
3 2 2 2 2 3 3 2 3 2 3 2 2 3 3 3 4 3 4 4 4 4 4 4 4 4 3 3 3 4 2 3 2 3 3 1 0 2 4 4 4 3 3 2 2 5 5 4 3 3 2 3 3 2 1 6 8 10 7 5 5 6 7 3 2 2 3 5 7 12 9 5 6 5 9 10 10 6 8 7 8 8 7 7 5
3 3 2 2 3 3 2 4 4 5 3 4 3 3 3 4 4 3 5 4 3 4 3 4 4 3 3 2 2 2 1 1 2 2 2 2 2 2 2 3 3 2 2 3 4 5 4 2 1 2 5 4 3 3 3 7 9 9 7 4 5 5 6 2 2 1 2 3 4 6 11 9 6 7 10 9 9 5 6 7 7 7 7 6 5
5 2 1 1 2 2 4 3 5 5 5 5 5 5 5 5 5 3 4 4 3 2 3 2 2 2 2 2 0 2 1 2 4 3 2 1 2 2 4 4 3 2 4 3 3 3 3 2 2 3 4 0 1 3 4 9 9 8 8 6 4 5 5 6 3 1 2 1 3 3 8 12 13 12 10 10 6 4 5 5 6 5 6 7 4
2 4 2 2 1 2 4 5 4 5 5 4 4 5 5 6 5 5 5 4 3 3 3 3 2 3 4 5 3 2 2 3 2 2 3 3 2 4 5 2 2 2 4 4 4 4 3 3 2 2 3 3 1 2 5 7 7 7 8 6 5 4 5 5 6 4 3 4 4 5 5 9 11 10 9 8 7 5 4 5 4 5 5 7 6
2 1 3 3 2 4 4 5 5 5 4 5 5 5 6 6 6 6 5 3 4 4 3 4 4 5 4 2 2 2 2 1 1 1 2 3 4 4 3 3 3 2 3 5 5 3 2 2 3 3 2 5 3 5 3 5 7 6 6 5 4 4 5 5 5 2 3 5 4 4 4 7 9 9 8 7 10 10 7 5 7 11 14 12 7
3 2 1 2 4 6 5 3 4 5 5 5 5 5 5 6 7 6 4 5 5 4 5 5 5 4 2 2 2 2 3 2 2 2 3 4 3 3 4 3 3 4 4 5 4 4 4 2 3 4 2 6 5 3 3 1 6 5 4 5 4 4 8 5 5 5 5 4 4 4 4 7 8 7 6 7 8 8 7 7 13 13 12 13 9
4 3 3 2 2 5 6 4 5 5 5 5 4 5 5 6 8 6 5 4 4 5 5 4 3 3 2 2 2 2 2 2 3 3 3 4 4 3 3 4 4 4 4 4 5 5 3 3 4 5 4 5 5 5 3 4 3 3 3 4 4 4 6 3 4 4 4 4 4 3 3 5 6 5 6 8 10 9 6 5 3 4 1 1 1
3 4 5 5 6 6 7 7 6 6 5 7 5 6 6 7 6 6 6 6 5 6 5 4 3 3 3 3 3 3 3 4 4 4 4 3 4 4 5 4 5 4 4 4 3 3 3 4 6 2 4 3 4 5 5 3 2 0 3 5 6 6 9 8 4 4 3 4 4 4 4 5 6 6 5 3 5 5 4 3 1 4 4 2 2
4 3 4 6 6 6 7 9 9 5 5 5 6 6 7 6 5 6 6 6 6 7 6 5 5 3 3 3 4 3 3 3 4 3 3 3 3 3 4 4 4 5 5 4 2 3 5 4 6 3 4 3 4 2 5 4 2 3 1 4 2 5 9 10 8 5 6 5 4 3 4 6 7 6 4 0 2 2 3 6 9 6 4 2 3
4 4 4 4 5 7 7 7 7 6 5 6 5 5 6 6 6 6 6 7 7 6 6 5 5 5 4 4 4 4 4 4 4 3 3 4 4 5 5 4 5 5 2 1 4 2 4 6 5 5 3 4 3 2 3 3 3 2 2 1 1 3 6 8 5 3 2 2 2 2 3 3 4 4 3 0 1 2 2 1 2 3 3 5 4
3 4 5 6 6 7 7 7 7 6 7 7 7 6 5 6 7 7 6 6 6 6 6 6 6 5 5 4 5 5 4 3 3 5 5 4 5 5 4 1 3 6 4 1 2 3 3 4 5 2 2 4 2 3 3 4 2 2 3 3 3 4 4 3 3 3 3 3 3 0 1 0 1 1 0 1 3 1 2 3 4 4 4 4 5
3 3 4 7 7 8 8 8 7 6 5 6 7 6 6 5 6 7 6 6 5 6 7 6 6 6 6 5 4 5 5 4 4 4 4 4 4 3 1 4 2 2 2 3 3 2 3 2 2 4 5 0 4 3 4 4 6 4 3 2 3 3 4 4 4 6 3 2 1 3 1 2 2 3 3 2 2 2 2 3 4 4 4 4 4
4 4 5 6 7 7 6 6 7 6 6 7 6 6 6 8 7 7 5 5 6 5 6 7 6 6 6 6 5 5 5 6 6 5 6 2 5 5 2 1 3 1 3 4 1 1 1 1 2 3 3 3 1 4 5 10 8 6 6 5 4 5 8 6 5 4 1 2 4 4 4 4 4 3 3 3 4 3 3 3 3 4 5 3 5
4 6 8 7 6 6 6 7 6 6 7 7 6 6 7 7 7 6 6 5 6 5 5 5 6 6 7 6 6 5 5 5 6 6 4 4 4 2 7 8 6 5 3 5 6 7 2 1 2 3 4 7 10 7 5 6 7 6 6 6 5 7 7 8 10 6 2 2 3 6 6 6 5 5 4 4 4 4 4 3 3 3 5 5 4
Wind_Direction
141 150 142 151 152 149 159 154 153 141 131 143 137 124 98 101 103 93 104 73 29 12 42 36 13 14 17 9 327 22 1 359 8 3 12 24 2 345 338 331 316 322 322 322 316 322 324 318 316 322 316 311 312 308 290 283 236 252 277 238 261 285 259 135 244 138 122 115 158 227 224 258 309 310 302 298 303 321 322 332 262 157 177 173 184
141 131 144 154 156 160 161 160 158 157 154 155 152 145 118 118 106 105 87 97 58 20 42 45 21 36 356 7 337 9 355 360 17 357 9 12 352 326 324 327 345 340 330 319 318 302 295 315 329 318 321 310 306 295 293 269 272 354 294 291 232 237 249 154 183 150 127 155 156 134 322 330 245 275 284 285 278 317 347 327 332 250 173 188 178
335 142 157 155 155 177 175 169 172 175 157 175 168 137 156 155 119 98 80 81 87 41 30 34 45 42 8 356 352 2 352 24 15 359 15 11 354 0 349 349 344 331 322 324 321 333 342 328 318 322 317 326 323 316 314 311 276 230 229 257 264 219 231 181 177 209 148 117 90 95 175 268 309 283 251 253 277 305 348 336 326 317 251 192 179
338 315 181 159 165 176 184 184 181 208 171 181 178 161 226 116 127 126 111 122 86 58 28 47 54 34 357 29 342 26 6 30 8 5 10 358 351 353 1 338 337 326 321 322 315 315 320 328 334 336 334 325 324 317 314 307 291 245 260 252 252 272 226 206 187 177 202 141 152 175 132 130 250 273 305 308 252 258 264 264 321 308 330 309 208
158 267 299 240 170 214 207 185 177 229 196 187 171 210 174 144 139 135 137 132 99 73 53 37 44 23 346 31 340 39 34 32 29 7 8 344 343 351 340 337 332 322 318 309 306 308 315 312 347 342 332 326 320 320 322 320 312 288 222 226 239 259 263 237 208 224 217 208 124 133 123 153 192 157 233 247 194 229 225 207 217 288 308 327 315
154 124 272 255 238 277 261 226 183 221 217 213 161 208 179 160 152 172 142 137 120 91 88 26 58 14 12 9 4 17 13 36 17 2 346 334 337 331 305 323 320 315 307 304 304 301 295 314 353 333 316 322 324 319 318 314 306 300 304 284 243 245 269 278 238 216 177 191 108 306 42 125 146 165 152 214 213 242 238 196 172 198 233 295 300
128 171 203 207 106 288 272 251 206 220 206 215 169 190 216 170 164 181 167 141 147 125 72 42 56 39 23 26 350 9 32 34 23 353 333 323 334 321 314 301 302 297 297 309 307 296 290 346 352 324 327 328 322 318 315 310 309 308 322 350 305 327 279 270 242 159 217 193 210 218 228 88 147 159 191 133 268 221 214 231 213 176 203 232 263
183 196 204 192 190 201 229 228 223 218 215 203 173 176 206 198 165 184 173 130 97 92 134 107 59 28 38 25 346 11 46 29 22 342 325 327 331 316 309 290 277 296 306 302 299 297 295 5 343 334 343 329 325 323 317 316 313 319 325 328 309 296 210 249 275 251 197 157 232 198 202 235 211 245 244 157 155 198 235 205 223 193 176 214 233
186 190 204 196 200 222 227 218 220 242 224 177 180 189 194 204 180 191 173 165 140 131 103 93 77 52 76 17 346 2 54 24 2 347 330 330 315 323 308 308 297 294 300 309 300 294 296 25 354 338 330 333 329 322 324 321 323 326 322 322 305 268 292 299 283 267 204 179 172 220 201 209 216 213 202 187 185 179 234 210 228 203 210 212 213
180 190 206 204 201 195 209 209 212 239 236 177 176 177 199 195 205 183 178 210 144 166 134 110 83 73 49 30 356 345 50 27 9 346 341 338 330 315 314 317 323 318 299 294 297 299 317 10 351 323 323 313 313 325 315 319 332 327 325 317 283 288 257 254 260 271 240 186 171 190 184 195 204 208 216 204 221 215 210 211 204 198 226 229 199
195 190 207 213 210 192 190 205 211 215 207 183 193 192 192 191 203 196 193 212 144 158 159 108 115 43 60 7 21 336 28 9 16 346 341 336 326 322 312 308 311 307 313 315 305 302 315 329 317 330 321 317 319 318 310 311 323 330 329 314 285 238 250 259 261 251 236 206 177 205 224 203 201 200 192 213 215 196 216 252 261 225 224 245 218
200 201 207 196 161 184 183 206 195 224 197 188 190 217 184 192 195 201 193 217 156 159 182 156 77 68 82 348 32 327 19 2 28 336 328 335 325 309 304 313 321 327 336 326 321 325 317 296 333 326 303 305 309 315 320 322 326 330 332 326 318 291 240 235 260 253 222 219 219 195 211 269 278 255 122 240 232 238 199 211 218 235 257 246 254
198 176 209 156 155 174 209 213 203 208 206 192 199 223 191 180 199 196 203 185 182 180 177 166 179 80 60 353 40 332 36 356 25 347 2 345 329 317 323 330 325 325 345 328 331 323 335 318 307 270 276 285 305 323 327 323 324 325 334 329 319 312 293 256 260 255 218 219 221 199 199 198 217 118 184 220 229 239 217 219 238 224 245 252 224
42 17 83 310 97 15 309 238 217 214 212 199 204 209 213 202 193 195 208 176 175 189 178 165 169 127 97 6 30 318 50 350 58 8 339 335 314 307 311 318 325 325 322 329 318 330 323 330 325 317 312 316 330 328 323 326 328 334 338 329 323 312 317 293 246 254 263 247 222 219 202 200 193 201 205 234 224 172 206 214 221 219 241 272 249
166 172 164 173 163 189 214 217 273 338 279 221 203 210 207 206 194 198 192 184 176 185 171 176 184 158 128 351 68 301 1 334 88 341 281 308 305 308 310 318 317 319 313 327 333 319 325 334 329 319 313 307 322 315 312 317 320 327 328 325 321 318 311 313 297 268 257 241 217 215 231 197 198 203 185 214 224 195 186 197 191 196 245 254 256
184 115 110 125 126 159 150 232 175 187 230 209 195 201 207 205 206 196 192 179 182 181 186 185 178 142 132 212 343 296 343 307 35 46 326 285 301 308 313 315 318 317 327 318 319 311 309 314 307 315 325 321 315 299 303 312 324 328 328 329 327 325 321 316 306 294 275 257 242 244 244 226 193 192 204 209 234 224 196 187 186 193 201 233 231
350 71 131 128 128 166 171 177 193 198 207 202 193 198 198 200 200 201 191 185 187 178 184 180 184 154 203 198 293 304 327 321 72 19 346 337 299 301 303 320 328 334 327 319 306 303 303 304 316 325 322 321 314 313 313 329 323 323 328 328 319 324 318 317 316 306 289 276 209 204 227 254 214 196 208 203 225 231 209 195 196 198 191 210 219
35 71 41 358 148 161 166 167 213 233 219 181 195 201 198 203 195 203 180 194 180 175 177 176 187 191 190 197 208 283 351 353 18 7 358 328 308 304 325 356 344 330 312 296 302 297 298 315 319 327 332 320 316 306 313 321 321 330 327 317 312 308 306 302 310 306 307 316 283 233 195 223 243 229 220 215 213 215 218 211 198 207 193 208 218
65 62 72 69 344 343 209 184 202 183 190 200 185 193 215 189 205 195 189 183 174 168 174 179 190 189 182 179 277 287 347 6 9 337 326 318 311 308 338 1 316 283 271 279 280 303 318 324 334 327 320 313 313 314 313 326 330 315 316 314 310 312 313 310 300 294 284 266 291 282 249 227 209 224 232 213 211 219 225 226 215 199 200 210 229
187 147 111 60 358 298 297 325 274 198 198 203 192 188 207 192 194 184 188 182 176 177 171 189 180 191 179 150 185 295 358 335 343 16 322 315 307 314 337 342 305 292 309 315 314 317 325 333 332 332 326 332 330 321 328 336 327 311 307 306 313 312 314 311 303 294 288 264 243 256 241 226 215 212 238 233 212 209 213 213 231 218 213 216 207
304 60 293 153 170 292 307 274 244 262 132 37 341 271 224 194 188 195 189 191 181 177 166 181 187 192 183 186 220 264 292 359 2 13 335 307 291 296 337 307 295 298 305 305 318 330 341 339 336 336 334 331 329 319 323 344 334 325 318 311 311 311 312 317 319 308 297 272 279 274 275 247 229 209 221 243 238 222 353 261 219 206 211 215 200
39 32 37 8 27 19 301 316 317 293 116 147 265 228 253 196 207 197 189 204 187 166 176 187 186 178 167 167 293 286 355 4 345 352 336 311 301 318 339 300 291 294 308 320 329 339 340 349 337 332 338 334 327 326 335 335 322 322 317 315 315 314 313 317 311 309 307 312 289 292 289 288 30 271 260 233 233 190 218 243 229 206 206 203 190
35 21 38 139 209 185 190 193 261 25 29 63 358 305 237 235 222 206 179 196 193 186 182 181 186 182 190 159 240 297 20 11 343 328 322 309 306 334 331 305 300 310 317 326 333 337 357 346 334 337 340 337 337 334 326 330 337 328 326 320 321 322 322 317 312 312 310 281 283 280 281 281 252 275 264 243 189 229 238 227 241 242 235 232 214
144 192 160 238 224 193 238 214 140 221 145 136 174 246 272 255 214 217 178 184 186 186 190 185 193 151 147 188 224 220 327 334 311 357 350 328 308 305 316 299 303 310 315 342 338 345 355 342 342 344 343 337 333 327 326 331 334 339 333 328 324 321 315 316 311 325 317 337 319 300 294 276 277 284 288 219 211 222 215 240 242 228 258 239 216
358 112 177 241 279 300 276 37 184 190 182 161 189 216 244 261 205 197 200 204 178 168 187 190 166 158 168 223 244 246 311 315 355 11 350 330 306 321 335 299 305 307 307 327 349 344 341 344 334 330 329 324 327 330 328 342 352 350 343 332 326 318 314 308 314 308 303 293 287 312 306 297 268 303 309 280 243 241 247 247 244 230 227 222 50
21 9 357 2 340 3 347 327 282 178 171 187 199 206 225 234 235 179 185 208 168 163 184 182 156 172 186 222 289 35 36 55 48 39 359 322 301 304 318 298 301 302 310 335 350 343 332 333 322 319 317 318 327 332 337 1 357 345 341 329 322 320 314 312 306 313 304 64 300 292 283 310 317 251 248 291 289 281 248 219 219 233 277 154 212
40 51 21 348 345 350 342 321 316 337 333 322 228 231 235 218 217 188 163 265 158 160 183 180 157 178 235 346 78 273 149 18 76 32 259 268 315 339 304 304 300 298 312 321 351 326 306 313 323 323 313 318 323 320 323 354 349 338 323 318 314 314 314 311 314 312 310 317 218 261 308 323 292 270 290 299 282 234 231 220 228 209 237 208 202
26 37 50 220 241 270 268 276 345 12 1 336 333 330 311 245 232 209 160 168 152 161 183 182 166 198 215 166 216 231 212 157 129 247 258 238 328 298 294 287 290 293 315 324 326 328 322 309 315 308 307 298 308 311 346 16 339 317 314 310 309 304 304 306 304 300 303 322 263 281 275 269 299 13 312 213 334 175 247 249 246 172 248 247 242
343 346 343 299 261 354 23 19 33 21 9 340 311 308 326 320 306 277 172 159 149 171 189 199 192 226 227 174 196 253 173 118 127 52 300 242 211 250 291 296 282 285 307 303 310 315 322 315 307 312 313 311 296 353 58 356 330 317 314 310 310 305 302 303 304 301 303 297 327 218 244 250 246 132 70 43 74 63 169 179 281 222 204 217 234
347 339 341 11 27 85 71 64 55 9 299 305 320 326 4 341 321 278 222 149 149 156 209 213 242 243 209 211 214 170 46 55 77 232 222 198 214 203 244 282 294 310 312 314 318 316 307 304 301 301 310 296 340 96 83 81 295 295 302 309 311 307 305 303 301 300 296 305 276 261 180 276 268 116 124 94 77 72 60 66 31 6 37 16 346
352 4 349 33 56 29 29 10 5 324 297 274 309 330 331 320 310 296 274 173 170 180 186 233 263 314 323 315 296 287 172 194 198 216 208 217 286 56 221 265 292 291 286 301 326 312 303 300 314 314 312 306 87 90 94 318 272 270 277 307 313 304 299 295 300 298 303 314 325 313 341 287 277 175 119 95 93 95 95 85 71 62 46 34 2
12 353 4 19 62 18 41 4 358 11 358 4 352 320 282 241 278 296 271 193 182 193 249 233 228 243 252 299 354 355 288 297 332 301 306 338 66 347 322 318 309 302 312 317 297 297 302 296 298 302 300 303 107 63 279 293 289 269 278 305 299 293 293 295 295 295 298 323 332 342 17 221 176 261 180 132 100 106 105 96 90 84 70 54 46
11 9 11 9 2 34 43 37 4 26 9 359 360 17 4 346 340 6 332 360 85 178 242 258 258 257 272 272 231 238 256 245 252 328 349 329 18 343 305 339 324 321 307 292 297 299 293 290 281 292 295 302 109 84 265 286 285 281 286 291 293 289 289 283 290 291 309 342 338 323 38 340 82 339 333 138 150 133 121 112 109 101 75 56 36
355 5 4 8 27 24 47 48 37 17 50 3 29 25 3 347 309 304 304 314 282 263 235 240 247 268 300 319 281 288 310 329 304 286 37 31 357 345 12 318 296 297 302 305 297 295 291 285 295 301 300 289 120 74 269 321 321 312 311 300 279 279 277 276 277 282 347 6 346 0 1 351 48 54 16 359 5 144 140 146 131 71 60 42 28
336 20 354 5 14 341 35 29 32 36 255 153 28 59 228 193 357 309 143 288 287 273 261 264 291 280 220 272 278 236 247 272 327 5 32 5 337 333 321 297 269 273 287 288 292 292 288 299 306 290 283 301 98 17 347 343 331 326 333 316 280 284 292 288 288 304 40 359 22 8 353 353 50 60 41 3 352 13 86 74 83 69 58 50 35
340 357 14 346 15 359 334 339 1 289 9 334 103 344 294 264 359 331 337 265 258 268 283 296 279 255 258 257 249 243 251 297 283 311 43 320 255 232 247 262 271 275 267 271 280 286 285 283 279 280 286 335 101 346 336 349 351 357 346 328 329 319 304 295 298 310 337 46 39 11 1 5 42 65 17 3 343 310 200 111 96 92 84 71 58
324 308 314 338 300 304 316 310 250 272 292 229 184 217 247 235 223 206 264 294 316 305 298 305 295 283 262 261 284 277 242 292 299 278 259 221 195 224 236 206 228 234 250 258 267 274 275 276 282 286 310 325 125 60 303 24 18 13 354 334 323 318 311 315 316 340 43 67 39 24 18 15 3 38 3 347 333 319 123 108 105 97 94 88 81
299 317 266 272 271 292 295 249 272 269 238 279 220 253 251 254 241 229 238 241 247 265 265 255 251 258 238 201 238 254 217 230 241 258 261 304 217 232 234 222 229 227 220 233 245 271 271 265 281 294 321 291 105 195 92 55 39 23 359 340 323 313 310 323 347 13 45 86 68 53 46 29 15 5 342 338 329 326 114 110 115 114 110 114 119
309 287 264 283 310 292 300 311 292 268 241 218 232 250 267 261 249 230 245 262 261 265 264 258 260 259 257 265 237 248 212 224 261 272 271 266 274 284 296 285 287 296 271 221 222 245 256 251 267 281 292 271 140 133 86 69 55 35 14 335 316 306 307 323 312 98 112 129 95 67 53 41 18 339 338 336 328 333 125 122 124 127 122 120 133
288 278 155 125 245 300 287 266 259 257 256 257 221 226 229 249 263 250 243 255 261 262 278 309 260 221 228 246 223 235 231 281 265 273 338 294 236 243 250 231 226 258 279 282 270 254 251 263 257 260 266 315 50 122 65 60 47 41 26 344 311 312 336 332 313 76 91 81 127 80 40 26 6 348 344 332 344 22 124 126 133 129 121 118 129
333 354 43 205 216 299 290 275 274 276 287 276 245 222 237 238 241 255 245 239 245 251 251 244 255 260 219 210 216 213 204 193 217 247 255 283 287 259 267 345 343 279 271 264 241 235 239 234 241 256 270 108 36 79 78 58 56 42 30 9 309 348 351 327 324 348 65 69 42 38 37 16 357 340 336 346 37 79 117 131 127 125 120 119 124
347 271 275 314 270 201 230 276 283 281 258 271 272 244 232 248 245 235 241 245 230 236 227 228 231 233 235 248 222 193 187 187 251 332 329 294 289 308 335 299 273 292 302 305 314 291 265 254 241 241 231 131 80 42 99 69 60 46 14 341 340 341 326 291 306 272 96 68 62 52 37 356 350 337 343 15 54 50 75 84 101 118 127 135 132
337 284 349 32 329 326 310 277 283 284 275 248 245 256 252 240 247 252 229 215 223 234 237 232 229 238 219 200 210 220 174 180 194 215 236 241 244 259 262 270 268 263 258 257 257 261 259 270 272 247 188 134 138 95 27 86 70 52 6 314 313 303 325 343 17 21 62 78 71 70 45 9 351 342 11 32 61 85 79 117 134 143 154 156 156
292 306 303 41 331 288 289 303 292 284 288 290 260 251 246 247 252 248 239 217 210 219 240 250 218 224 229 211 206 211 201 181 206 217 237 255 261 267 267 257 259 257 263 256 243 245 241 238 243 245 147 153 135 124 98 68 77 31 330 305 336 5 27 6 33 42 39 65 79 66 51 344 347 4 54 58 59 60 90 96 111 109 85 289 23
320 354 346 329 325 331 318 301 286 280 281 285 273 250 251 254 251 242 254 238 215 214 214 231 236 218 208 212 220 222 202 201 211 217 233 243 245 231 241 249 254 249 233 237 267 256 238 248 256 207 137 142 104 133 130 108 141 257 294 341 342 49 37 41 63 57 71 74 93 92 26 324 318 320 326 75 84 90 107 138 140 201 191 216 218
318 306 11 349 317 298 293 292 292 293 292 284 288 281 257 248 254 239 236 249 226 209 211 212 222 224 221 208 210 215 225 211 208 218 230 227 236 248 253 263 271 245 211 203 265 259 251 250 255 206 149 114 130 151 121 131 190 212 323 18 1 70 86 72 73 91 103 101 78 55 322 306 295 291 284 61 78 121 165 189 217 207 227 208 107
335 356 345 313 306 296 288 286 288 295 291 288 281 278 278 263 248 252 247 238 242 222 199 200 211 220 212 217 218 210 206 205 214 230 235 237 237 236 237 238 255 267 243 191 240 270 335 314 292 98 110 136 146 151 125 136 175 205 175 199 259 102 108 113 118 137 151 118 171 206 274 300 318 333 341 61 282 274 275 207 148 148 109 70 67
3 341 322 303 288 281 287 289 291 297 299 295 286 277 271 275 272 256 242 241 226 218 213 201 205 211 223 207 212 194 196 229 224 198 208 223 239 246 233 135 30 8 334 115 299 43 28 348 351 331 175 133 140 143 142 180 161 192 171 185 218 181 192 215 131 163 153 136 135 282 331 283 208 101 42 277 251 277 58 48 52 58 76 89 96
317 319 312 294 290 287 282 284 288 286 285 289 295 294 286 273 272 267 251 245 239 218 208 209 203 208 215 222 214 195 189 210 235 244 224 227 247 225 119 103 65 60 76 352 354 33 51 6 3 22 14 326 188 177 131 106 105 89 64 21 14 349 242 187 92 76 101 103 133 169 216 239 251 234 208 172 107 90 79 92 113 112 117 134 127
301 301 296 287 278 274 283 297 300 301 297 294 288 288 292 292 280 270 255 230 236 234 214 206 206 214 213 212 221 220 203 195 208 218 228 181 26 44 47 155 154 134 95 114 125 108 118 313 24 58 43 54 352 97 125 113 121 113 90 72 52 48 19 64 43 42 122 191 209 228 206 213 211 189 148 149 149 143 147 142 137 179 178 135 110
331 307 297 293 303 311 308 295 288 289 286 287 294 302 297 287 288 279 275 268 247 232 228 213 205 215 220 218 209 216 218 211 201 199 236 188 168 100 49 52 65 130 113 104 119 126 117 46 76 101 72 74 99 104 115 113 102 91 77 55 25 34 42 46 50 35 327 272 261 216 208 204 175 158 165 169 186 182 171 154 129 99 85 93 98